| time (UTC) | temp C | wind direction | speed KPH | gust KPH | rain 1hr cm | rain 24hr cm | rain mn cm | humidity % | barometer mb |
| 20260903190031 | 37 | 229 | 1.6 | 1.6 | 0.00 | 0.00 | 0.00 | 56 | 1007.4 |
| 20260903185438 | 36 | 271 | 4.8 | 6.4 | 0.00 | 0.00 | 0.00 | 58 | 1007.7 |
| 20260903184239 | 36 | 295 | 3.2 | 4.8 | 0.00 | 0.00 | 0.00 | 60 | 1007.7 |
| 20260903183621 | 36 | 217 | 1.6 | 1.6 | 0.00 | 0.00 | 0.00 | 63 | 1007.7 |
| 20260903182434 | 33 | 209 | 1.6 | 1.6 | 0.00 | 0.00 | 0.00 | 72 | 1007.7 |
| 20260903181836 | 32 | 190 | 1.6 | 1.6 | 0.00 | 0.00 | 0.00 | 76 | 1008.1 |
| 20260903181249 | 31 | 152 | 0.0 | 0.0 | 0.00 | 0.00 | 0.00 | 79 | 1008.1 |
| 20260903180610 | 32 | 149 | 0.0 | 1.6 | 0.00 | 0.00 | 0.00 | 77 | 1008.1 |
| 20260903180039 | 33 | 134 | 0.0 | 0.0 | 0.00 | 0.00 | 0.00 | 74 | 1008.1 |
| 20260903175445 | 33 | 162 | 0.0 | 1.6 | 0.00 | 0.00 | 0.00 | 71 | 1008.4 |
| 20260903174825 | 34 | 173 | 1.6 | 1.6 | 0.00 | 0.00 | 0.00 | 68 | 1008.1 |
| 20260903174239 | 35 | 4 | 3.2 | 3.2 | 0.00 | 0.00 | 0.00 | 63 | 1008.1 |
| 20260903173015 | 35 | 173 | 1.6 | 1.6 | 0.00 | 0.00 | 0.00 | 62 | 1008.4 |
| 20260903172433 | 35 | 178 | 1.6 | 1.6 | 0.00 | 0.00 | 0.00 | 65 | 1008.4 |
| 20260903171826 | 35 | 166 | 0.0 | 1.6 | 0.00 | 0.00 | 0.00 | 63 | 1008.4 |
| 20260903170014 | 34 | 199 | 1.6 | 1.6 | 0.00 | 0.00 | 0.00 | 68 | 1008.4 |
| 20260903165428 | 34 | 185 | 1.6 | 3.2 | 0.00 | 0.00 | 0.00 | 65 | 1008.4 |
| 20260903164826 | 34 | 203 | 3.2 | 4.8 | 0.00 | 0.00 | 0.00 | 69 | 1008.8 |
| 20260903164224 | 33 | 180 | 1.6 | 1.6 | 0.00 | 0.00 | 0.00 | 71 | 1009.1 |
| 20260903163636 | 33 | 275 | 4.8 | 6.4 | 0.00 | 0.00 | 0.00 | 70 | 1008.8 |
| 20260903163045 | 34 | 181 | 3.2 | 3.2 | 0.00 | 0.00 | 0.00 | 72 | 1009.1 |
| 20260903162415 | 33 | 206 | 3.2 | 4.8 | 0.00 | 0.00 | 0.00 | 69 | 1009.1 |
| 20260903161805 | 33 | 187 | 1.6 | 3.2 | 0.00 | 0.00 | 0.00 | 69 | 1009.1 |
| 20260903161249 | 33 | 206 | 3.2 | 3.2 | 0.00 | 0.00 | 0.00 | 74 | 1009.1 |
| 20260903155408 | 33 | 167 | 1.6 | 1.6 | 0.00 | 0.00 | 0.00 | 74 | 1009.1 |
| 20260903154825 | 33 | 11 | 1.6 | 3.2 | 0.00 | 0.00 | 0.00 | 71 | 1009.1 |
| 20260903154226 | 32 | 183 | 0.0 | 1.6 | 0.00 | 0.00 | 0.00 | 75 | 1009.1 |
| 20260903153632 | 32 | 196 | 1.6 | 1.6 | 0.00 | 0.00 | 0.00 | 75 | 1009.1 |
| 20260903153007 | 32 | 166 | 0.0 | 0.0 | 0.00 | 0.00 | 0.00 | 76 | 1009.1 |
| 20260903152413 | 32 | 205 | 0.0 | 1.6 | 0.00 | 0.00 | 0.00 | 77 | 1009.4 |
| 20260903151835 | 31 | 137 | 0.0 | 1.6 | 0.00 | 0.00 | 0.00 | 80 | 1009.4 |
| 20260903151219 | 31 | 149 | 0.0 | 0.0 | 0.00 | 0.00 | 0.00 | 81 | 1009.4 |
| 20260903150626 | 30 | 147 | 1.6 | 1.6 | 0.00 | 0.00 | 0.00 | 80 | 1009.4 |
| 20260903150044 | 30 | 161 | 0.0 | 0.0 | 0.00 | 0.00 | 0.00 | 83 | 1009.1 |
| 20260903145436 | 30 | 311 | 1.6 | 3.2 | 0.00 | 0.00 | 0.00 | 86 | 1009.1 |
| 20260903144818 | 29 | 185 | 1.6 | 1.6 | 0.00 | 0.00 | 0.00 | 87 | 1009.1 |
| 20260903144213 | 29 | 153 | 0.0 | 1.6 | 0.00 | 0.00 | 0.00 | 87 | 1009.4 |
| 20260903143651 | 28 | 108 | 0.0 | 1.6 | 0.00 | 0.00 | 0.00 | 88 | 1009.1 |
| 20260903143033 | 28 | 76 | 1.6 | 1.6 | 0.00 | 0.00 | 0.00 | 89 | 1009.4 |
| 20260903142447 | 27 | 117 | 0.0 | 1.6 | 0.00 | 0.00 | 0.00 | 92 | 1009.4 |
| 20260903141841 | 27 | 168 | 1.6 | 1.6 | 0.00 | 0.00 | 0.00 | 95 | 1009.4 |
| 20260903141221 | 27 | 133 | 0.0 | 0.0 | 0.00 | 0.00 | 0.00 | 95 | 1009.1 |
| 20260903140647 | 27 | 140 | 0.0 | 0.0 | 0.00 | 0.00 | 0.00 | 96 | 1009.1 |
| 20260903140010 | 26 | 134 | 0.0 | 0.0 | 0.00 | 0.00 | 0.00 | 97 | 1009.4 |
| 20260903135422 | 26 | 134 | 0.0 | 0.0 | 0.00 | 0.00 | 0.00 | 98 | 1009.1 |
| 20260903134229 | 25 | 168 | 1.6 | 3.2 | 0.00 | 0.00 | 0.00 | 99 | 1009.4 |
| 20260903133643 | 25 | 165 | 1.6 | 1.6 | 0.00 | 0.00 | 0.00 | 99 | 1009.4 |
| 20260903133012 | 25 | 150 | 0.0 | 0.0 | 0.00 | 0.00 | 0.00 | 99 | 1009.4 |
| 20260903132442 | 25 | 144 | 0.0 | 0.0 | 0.00 | 0.00 | 0.00 | 99 | 1009.4 |
| 20260903131849 | 24 | 145 | 0.0 | 0.0 | 0.00 | 0.00 | 0.00 | 99 | 1009.1 |
| 20260903131223 | 24 | 142 | 0.0 | 0.0 | 0.00 | 0.00 | 0.00 | 99 | 1009.4 |
| 20260903130610 | 23 | 154 | 0.0 | 0.0 | 0.00 | 0.00 | 0.00 | 99 | 1009.4 |
| 20260903130019 | 23 | 132 | 0.0 | 0.0 | 0.00 | 0.00 | 0.00 | 99 | 1009.8 |
| 20260903125448 | 23 | 144 | 0.0 | 0.0 | 0.00 | 0.00 | 0.00 | 99 | 1009.8 |
| 20260903124840 | 23 | 143 | 0.0 | 0.0 | 0.00 | 0.00 | 0.00 | 99 | 1009.8 |
| 20260903123623 | 23 | 142 | 0.0 | 0.0 | 0.00 | 0.00 | 0.00 | 99 | 1009.4 |
| 20260903123015 | 23 | 142 | 0.0 | 0.0 | 0.00 | 0.00 | 0.00 | 99 | 1009.8 |
| 20260903122448 | 22 | 142 | 0.0 | 0.0 | 0.00 | 0.00 | 0.00 | 99 | 1009.4 |
| 20260903121846 | 22 | 142 | 0.0 | 0.0 | 0.00 | 0.00 | 0.00 | 99 | 1009.4 |
| 20260903121235 | 22 | 142 | 0.0 | 0.0 | 0.00 | 0.00 | 0.00 | 99 | 1009.8 |
| 20260903120606 | 22 | 142 | 0.0 | 0.0 | 0.00 | 0.00 | 0.00 | 99 | 1009.4 |
| 20260903115439 | 22 | 142 | 0.0 | 0.0 | 0.00 | 0.00 | 0.00 | 99 | 1009.4 |
| 20260903114815 | 22 | 142 | 0.0 | 0.0 | 0.00 | 0.00 | 0.00 | 99 | 1009.4 |
| 20260903114218 | 22 | 142 | 0.0 | 0.0 | 0.00 | 0.00 | 0.00 | 99 | 1009.4 |
| 20260903113613 | 22 | 143 | 0.0 | 0.0 | 0.00 | 0.00 | 0.00 | 99 | 1009.4 |
| 20260903113040 | 22 | 143 | 0.0 | 0.0 | 0.00 | 0.00 | 0.00 | 99 | 1009.4 |
| 20260903112442 | 22 | 142 | 0.0 | 0.0 | 0.00 | 0.00 | 0.00 | 99 | 1009.4 |
| 20260903111840 | 22 | 143 | 0.0 | 0.0 | 0.00 | 0.00 | 0.00 | 99 | 1009.4 |
| 20260903111238 | 22 | 144 | 0.0 | 0.0 | 0.00 | 0.00 | 0.00 | 99 | 1009.1 |
| 20260903110016 | 22 | 143 | 0.0 | 0.0 | 0.00 | 0.00 | 0.00 | 99 | 1009.1 |
| 20260903104807 | 22 | 134 | 0.0 | 0.0 | 0.00 | 0.00 | 0.00 | 99 | 1009.1 |
| 20260903103014 | 22 | 129 | 0.0 | 0.0 | 0.00 | 0.00 | 0.00 | 99 | 1008.8 |
| 20260903102426 | 22 | 140 | 0.0 | 0.0 | 0.00 | 0.00 | 0.00 | 99 | 1008.8 |
| 20260903101226 | 22 | 140 | 0.0 | 0.0 | 0.00 | 0.00 | 0.00 | 99 | 1008.8 |
| 20260903100036 | 22 | 124 | 0.0 | 0.0 | 0.00 | 0.00 | 0.00 | 99 | 1008.8 |
| 20260903095419 | 22 | 136 | 0.0 | 0.0 | 0.00 | 0.00 | 0.00 | 99 | 1008.8 |
| 20260903094811 | 22 | 122 | 0.0 | 0.0 | 0.00 | 0.00 | 0.00 | 99 | 1008.8 |
| 20260903093017 | 22 | 139 | 0.0 | 0.0 | 0.00 | 0.00 | 0.00 | 99 | 1008.8 |
| 20260903092412 | 22 | 138 | 0.0 | 0.0 | 0.00 | 0.00 | 0.00 | 99 | 1008.8 |
| 20260903091837 | 22 | 136 | 0.0 | 0.0 | 0.00 | 0.00 | 0.00 | 99 | 1008.8 |
| 20260903091237 | 22 | 134 | 0.0 | 0.0 | 0.00 | 0.00 | 0.00 | 99 | 1008.8 |
| 20260903090638 | 22 | 134 | 0.0 | 0.0 | 0.00 | 0.00 | 0.00 | 99 | 1008.8 |
| 20260903090044 | 22 | 132 | 0.0 | 0.0 | 0.00 | 0.00 | 0.00 | 99 | 1008.4 |
| 20260903085441 | 22 | 135 | 0.0 | 0.0 | 0.00 | 0.00 | 0.00 | 99 | 1008.8 |
| 20260903084817 | 22 | 135 | 0.0 | 0.0 | 0.00 | 0.00 | 0.00 | 99 | 1008.8 |
| 20260903084237 | 22 | 131 | 0.0 | 0.0 | 0.00 | 0.00 | 0.00 | 99 | 1008.8 |
| 20260903083050 | 22 | 135 | 0.0 | 0.0 | 0.00 | 0.00 | 0.00 | 99 | 1008.4 |
| 20260903082447 | 22 | 135 | 0.0 | 0.0 | 0.00 | 0.00 | 0.00 | 99 | 1008.4 |
| 20260903081849 | 22 | 127 | 0.0 | 0.0 | 0.00 | 0.00 | 0.00 | 99 | 1008.8 |
| 20260903081206 | 22 | 126 | 0.0 | 0.0 | 0.00 | 0.00 | 0.00 | 99 | 1008.8 |
| 20260903080612 | 22 | 141 | 0.0 | 0.0 | 0.00 | 0.00 | 0.00 | 99 | 1008.4 |
| 20260903080026 | 22 | 138 | 0.0 | 0.0 | 0.00 | 0.00 | 0.00 | 99 | 1008.8 |
| 20260903075430 | 23 | 136 | 0.0 | 0.0 | 0.00 | 0.00 | 0.00 | 99 | 1008.4 |
| 20260903074832 | 23 | 133 | 0.0 | 0.0 | 0.00 | 0.00 | 0.00 | 99 | 1008.4 |
| 20260903074223 | 23 | 132 | 0.0 | 0.0 | 0.00 | 0.00 | 0.00 | 99 | 1008.8 |
| 20260903073605 | 23 | 124 | 0.0 | 0.0 | 0.00 | 0.00 | 0.00 | 99 | 1008.4 |
| 20260903072436 | 23 | 124 | 0.0 | 0.0 | 0.00 | 0.00 | 0.00 | 99 | 1008.4 |
| 20260903071845 | 23 | 126 | 0.0 | 0.0 | 0.00 | 0.00 | 0.00 | 99 | 1008.4 |
| 20260903071242 | 23 | 140 | 0.0 | 0.0 | 0.00 | 0.00 | 0.00 | 99 | 1008.4 |
| 20260903070626 | 23 | 138 | 0.0 | 0.0 | 0.00 | 0.00 | 0.00 | 99 | 1008.4 |
| 20260903065443 | 23 | 141 | 0.0 | 0.0 | 0.00 | 0.00 | 0.00 | 99 | 1008.4 |
| 20260903064840 | 23 | 140 | 0.0 | 0.0 | 0.00 | 0.00 | 0.00 | 99 | 1008.4 |
| 20260903064209 | 23 | 142 | 0.0 | 0.0 | 0.00 | 0.00 | 0.00 | 99 | 1008.4 |
| 20260903063612 | 23 | 148 | 0.0 | 0.0 | 0.00 | 0.00 | 0.00 | 99 | 1008.4 |
| 20260903063035 | 23 | 142 | 0.0 | 0.0 | 0.00 | 0.00 | 0.00 | 99 | 1008.8 |
| 20260903062413 | 23 | 150 | 0.0 | 0.0 | 0.00 | 0.00 | 0.00 | 99 | 1008.8 |
| 20260903061826 | 23 | 148 | 0.0 | 0.0 | 0.00 | 0.00 | 0.00 | 99 | 1008.8 |
| 20260903061223 | 23 | 148 | 0.0 | 0.0 | 0.00 | 0.00 | 0.00 | 99 | 1008.8 |
| 20260903060643 | 23 | 146 | 0.0 | 0.0 | 0.00 | 0.00 | 0.00 | 99 | 1008.4 |
| 20260903060022 | 23 | 145 | 0.0 | 0.0 | 0.00 | 0.00 | 0.00 | 99 | 1008.8 |
| 20260903055421 | 23 | 137 | 0.0 | 0.0 | 0.00 | 0.00 | 0.00 | 99 | 1008.4 |
| 20260903054841 | 23 | 143 | 0.0 | 0.0 | 0.00 | 0.00 | 0.00 | 99 | 1008.8 |
| 20260903054241 | 23 | 146 | 0.0 | 0.0 | 0.00 | 0.00 | 0.00 | 99 | 1008.4 |
| 20260903053630 | 23 | 144 | 0.0 | 0.0 | 0.00 | 0.00 | 0.00 | 99 | 1008.1 |
| 20260903053045 | 23 | 138 | 0.0 | 0.0 | 0.00 | 0.00 | 0.00 | 99 | 1008.4 |
| 20260903052414 | 23 | 122 | 0.0 | 0.0 | 0.00 | 0.00 | 0.00 | 99 | 1008.4 |
| 20260903051836 | 23 | 131 | 0.0 | 0.0 | 0.00 | 0.00 | 0.00 | 99 | 1008.1 |
| 20260903051246 | 23 | 140 | 0.0 | 0.0 | 0.00 | 0.00 | 0.00 | 99 | 1008.4 |
| 20260903050044 | 23 | 132 | 0.0 | 0.0 | 0.00 | 0.00 | 0.00 | 99 | 1008.1 |
| 20260903045423 | 23 | 142 | 0.0 | 0.0 | 0.00 | 0.00 | 0.00 | 99 | 1008.4 |
| 20260903044820 | 24 | 132 | 0.0 | 0.0 | 0.00 | 0.00 | 0.00 | 99 | 1008.1 |
| 20260903044241 | 24 | 147 | 0.0 | 0.0 | 0.00 | 0.00 | 0.00 | 99 | 1008.1 |
| 20260903043608 | 24 | 145 | 0.0 | 0.0 | 0.00 | 0.00 | 0.00 | 99 | 1007.7 |
| 20260903042436 | 24 | 139 | 0.0 | 0.0 | 0.00 | 0.00 | 0.00 | 99 | 1008.1 |
| 20260903041809 | 24 | 144 | 0.0 | 0.0 | 0.00 | 0.00 | 0.00 | 99 | 1008.1 |
| 20260903040636 | 24 | 144 | 0.0 | 0.0 | 0.00 | 0.00 | 0.00 | 99 | 1008.1 |
| 20260903033647 | 25 | 141 | 0.0 | 0.0 | 0.00 | 0.00 | 0.00 | 99 | 1008.8 |
| 20260903033021 | 25 | 136 | 0.0 | 0.0 | 0.00 | 0.00 | 0.00 | 99 | 1008.4 |
| 20260903032429 | 25 | 141 | 0.0 | 0.0 | 0.00 | 0.00 | 0.00 | 99 | 1008.4 |
| 20260903031847 | 25 | 135 | 0.0 | 0.0 | 0.00 | 0.00 | 0.00 | 98 | 1008.4 |
| 20260903031227 | 25 | 144 | 0.0 | 0.0 | 0.00 | 0.00 | 0.00 | 98 | 1008.1 |
| 20260903030031 | 25 | 132 | 0.0 | 0.0 | 0.00 | 0.00 | 0.00 | 98 | 1008.4 |
| 20260903025421 | 25 | 121 | 0.0 | 0.0 | 0.00 | 0.00 | 0.00 | 97 | 1008.4 |
| 20260903024819 | 25 | 136 | 0.0 | 0.0 | 0.00 | 0.00 | 0.00 | 97 | 1008.8 |
| 20260903024240 | 25 | 135 | 0.0 | 0.0 | 0.00 | 0.00 | 0.00 | 97 | 1008.8 |
| 20260903023031 | 25 | 124 | 0.0 | 0.0 | 0.00 | 0.00 | 0.00 | 96 | 1008.4 |
| 20260903022413 | 25 | 138 | 0.0 | 0.0 | 0.00 | 0.00 | 0.00 | 96 | 1008.8 |
| 20260903021831 | 25 | 134 | 0.0 | 0.0 | 0.00 | 0.00 | 0.00 | 96 | 1008.4 |
| 20260903021225 | 25 | 147 | 0.0 | 0.0 | 0.00 | 0.00 | 0.00 | 96 | 1008.4 |
| 20260903020614 | 25 | 144 | 0.0 | 0.0 | 0.00 | 0.00 | 0.00 | 95 | 1008.4 |
| 20260903020031 | 25 | 140 | 0.0 | 0.0 | 0.00 | 0.00 | 0.00 | 95 | 1008.4 |
| 20260903014825 | 25 | 137 | 0.0 | 0.0 | 0.00 | 0.00 | 0.00 | 94 | 1008.1 |
| 20260903013041 | 26 | 136 | 0.0 | 0.0 | 0.00 | 0.00 | 0.00 | 94 | 1008.4 |
| 20260903012417 | 26 | 138 | 0.0 | 0.0 | 0.00 | 0.00 | 0.00 | 94 | 1008.4 |
| 20260903011247 | 26 | 131 | 0.0 | 0.0 | 0.00 | 0.00 | 0.00 | 93 | 1008.4 |
| 20260903010631 | 26 | 132 | 0.0 | 0.0 | 0.00 | 0.00 | 0.00 | 92 | 1008.1 |
| 20260903010042 | 26 | 131 | 0.0 | 0.0 | 0.00 | 0.00 | 0.00 | 92 | 1008.1 |
| 20260903005428 | 26 | 132 | 0.0 | 0.0 | 0.00 | 0.00 | 0.00 | 92 | 1008.1 |
| 20260903004849 | 26 | 127 | 0.0 | 0.0 | 0.00 | 0.00 | 0.00 | 91 | 1007.7 |
| 20260903004227 | 26 | 135 | 0.0 | 0.0 | 0.00 | 0.00 | 0.00 | 91 | 1008.1 |
| 20260903003640 | 27 | 124 | 0.0 | 0.0 | 0.00 | 0.00 | 0.00 | 90 | 1007.7 |
| 20260903002418 | 27 | 143 | 0.0 | 0.0 | 0.00 | 0.00 | 0.00 | 88 | 1007.7 |
| 20260903001845 | 27 | 145 | 0.0 | 0.0 | 0.00 | 0.00 | 0.00 | 88 | 1007.7 |
| 20260903001207 | 27 | 136 | 0.0 | 0.0 | 0.00 | 0.00 | 0.00 | 87 | 1007.7 |
| 20260903000622 | 28 | 140 | 0.0 | 0.0 | 0.00 | 0.00 | 0.00 | 86 | 1007.7 |
| 20260903000030 | 28 | 141 | 0.0 | 0.0 | 0.00 | 0.00 | 0.00 | 83 | 1007.7 |
| 20260902235426 | 29 | 136 | 0.0 | 0.0 | 0.00 | 0.00 | 0.00 | 81 | 1007.7 |
| 20260902234827 | 30 | 136 | 0.0 | 0.0 | 0.00 | 0.00 | 0.00 | 79 | 1007.7 |
| 20260902234231 | 30 | 134 | 0.0 | 0.0 | 0.00 | 0.00 | 0.00 | 77 | 1007.7 |
| 20260902232448 | 33 | 151 | 0.0 | 0.0 | 0.00 | 0.00 | 0.00 | 71 | 1007.7 |
| 20260902231807 | 33 | 143 | 0.0 | 0.0 | 0.00 | 0.00 | 0.00 | 69 | 1007.7 |
| 20260902230636 | 34 | 124 | 0.0 | 0.0 | 0.00 | 0.00 | 0.00 | 67 | 1007.7 |
| 20260902225422 | 35 | 147 | 0.0 | 0.0 | 0.00 | 0.00 | 0.00 | 65 | 1007.7 |
| 20260902224832 | 35 | 156 | 0.0 | 0.0 | 0.00 | 0.00 | 0.00 | 65 | 1007.7 |
| 20260902224238 | 36 | 171 | 0.0 | 0.0 | 0.00 | 0.00 | 0.00 | 65 | 1007.7 |
| 20260902223649 | 36 | 148 | 0.0 | 0.0 | 0.00 | 0.00 | 0.00 | 64 | 1008.1 |
| 20260902223034 | 36 | 162 | 0.0 | 0.0 | 0.00 | 0.00 | 0.00 | 64 | 1008.1 |
| 20260902222413 | 36 | 165 | 0.0 | 1.6 | 0.00 | 0.00 | 0.00 | 65 | 1008.1 |
| 20260902221814 | 36 | 196 | 0.0 | 0.0 | 0.00 | 0.00 | 0.00 | 65 | 1007.7 |
| 20260902221219 | 36 | 139 | 0.0 | 0.0 | 0.00 | 0.00 | 0.00 | 65 | 1007.7 |
| 20260902220629 | 36 | 149 | 0.0 | 1.6 | 0.00 | 0.00 | 0.00 | 64 | 1008.1 |
| 20260902220047 | 36 | 182 | 1.6 | 1.6 | 0.00 | 0.00 | 0.00 | 64 | 1008.1 |
| 20260902215407 | 36 | 181 | 0.0 | 1.6 | 0.00 | 0.00 | 0.00 | 63 | 1007.7 |
| 20260902214848 | 36 | 168 | 1.6 | 1.6 | 0.00 | 0.00 | 0.00 | 64 | 1007.7 |
| 20260902214236 | 36 | 143 | 0.0 | 1.6 | 0.00 | 0.00 | 0.00 | 59 | 1008.1 |
| 20260902213633 | 36 | 285 | 3.2 | 3.2 | 0.00 | 0.00 | 0.00 | 56 | 1007.7 |
| 20260902213030 | 37 | 74 | 1.6 | 1.6 | 0.00 | 0.00 | 0.00 | 56 | 1008.1 |
| 20260902212428 | 36 | 318 | 1.6 | 1.6 | 0.00 | 0.00 | 0.00 | 58 | 1007.7 |
| 20260902211842 | 36 | 208 | 1.6 | 1.6 | 0.00 | 0.00 | 0.00 | 60 | 1007.7 |
| 20260902210614 | 36 | 143 | 1.6 | 1.6 | 0.00 | 0.00 | 0.00 | 55 | 1007.7 |
| 20260902210017 | 36 | 68 | 1.6 | 3.2 | 0.00 | 0.00 | 0.00 | 56 | 1008.1 |
| 20260902205407 | 37 | 314 | 1.6 | 3.2 | 0.00 | 0.00 | 0.00 | 56 | 1008.1 |
| 20260902204845 | 37 | 160 | 1.6 | 1.6 | 0.00 | 0.00 | 0.00 | 56 | 1008.4 |
| 20260902204243 | 36 | 157 | 1.6 | 3.2 | 0.00 | 0.00 | 0.00 | 55 | 1008.4 |
| 20260902203641 | 36 | 207 | 1.6 | 1.6 | 0.00 | 0.00 | 0.00 | 53 | 1008.4 |
| 20260902203013 | 36 | 14 | 1.6 | 1.6 | 0.00 | 0.00 | 0.00 | 55 | 1008.8 |
| 20260902202412 | 36 | 73 | 1.6 | 1.6 | 0.00 | 0.00 | 0.00 | 56 | 1008.4 |
| 20260902201809 | 36 | 272 | 3.2 | 3.2 | 0.00 | 0.00 | 0.00 | 58 | 1008.8 |
| 20260902201247 | 37 | 3 | 4.8 | 4.8 | 0.00 | 0.00 | 0.00 | 54 | 1008.8 |
| 20260902200642 | 36 | 123 | 1.6 | 1.6 | 0.00 | 0.00 | 0.00 | 54 | 1008.8 |
| 20260902194813 | 36 | 150 | 3.2 | 3.2 | 0.00 | 0.00 | 0.00 | 54 | 1009.1 |
| 20260902194231 | 36 | 189 | 3.2 | 3.2 | 0.00 | 0.00 | 0.00 | 58 | 1009.1 |
| 20260902193638 | 36 | 142 | 1.6 | 1.6 | 0.00 | 0.00 | 0.00 | 56 | 1009.1 |
| 20260902193024 | 36 | 341 | 3.2 | 3.2 | 0.00 | 0.00 | 0.00 | 56 | 1009.1 |
| 20260902192449 | 36 | 171 | 1.6 | 1.6 | 0.00 | 0.00 | 0.00 | 58 | 1009.4 |
| 20260902191835 | 36 | 259 | 1.6 | 1.6 | 0.00 | 0.00 | 0.00 | 55 | 1009.1 |
| 20260902190627 | 35 | 290 | 3.2 | 3.2 | 0.00 | 0.00 | 0.00 | 57 | 1009.1 |